Regional Weather Roundup
Issued by NWS Wakefield, VA

Home | Current Version | Previous Version | Graphics & Text | Print | Product List | Glossary On
Versions: 1 2 3 4 5 6 7 8 9 10 11 12 13 14 15 16 17 18 19 20 21 22 23 24 25 26 27 28 29 30 31 32 33 34 35 36 37 38 39 40 41 42 43 44 45 46 47 48 49 50
000
ASUS41 KAKQ 272010
RWRAKQ

REGIONAL WEATHER ROUNDUP
NATIONAL WEATHER SERVICE WAKEFIELD VA
400 PM EDT SUN JUL 27 2014

Note: "fair" indicates few or no clouds below 12,000 feet with no
significant weather and/or obstructions to visibility. * = Denotes
station may not report precipitation (e.g., rain,snow,etc.),
thunder or fog.

VAZ042-051-052>054-056-272100-
NORTHERN VIRGINIA

CITY           SKY/WX    TMP DP  RH WIND       PRES   REMARKS
WASH NATIONAL  PTSUNNY   85  70  60 S12       29.76F
DULLES         PTSUNNY   82  70  66 S12       29.76F
FORT BELVOIR   DRIZZLE   84  71  64 VRB7      29.77F
QUANTICO       CLOUDY    82  70  66 SW9       29.77F
FREDERICKSBRG* CLOUDY    83  72  68 SW10      29.77F
STAFFORD*      CLOUDY    80  71  73 SW7       29.81F
WARRENTON      CLOUDY    82  77  83 S6        29.77F
CULPEPER*      LGT RAIN N/A N/A N/A S3        29.77F
MANASSAS*      PTSUNNY   82  73  74 S7        29.76F
LEESBURG*      PTSUNNY   86  73  66 SW6       29.76F
WINCHESTER     RAIN      79  68  69 SW5       29.77F
$$

VAZ048-049-060>072-079>083-272100-
CENTRAL AND SOUTH CENTRAL VIRGINIA...AND NORTH CENTRAL NORTH CAROLINA

CITY           SKY/WX    TMP DP  RH WIND       PRES   REMARKS
RICHMOND       PTSUNNY   87  69  54 S17       29.80F
CHESTERFIELD*  MOCLDY   N/A N/A N/A SW15      29.83F
HANOVER        CLOUDY    84  69  60 S8        29.81F
TAPPAHANNOCK*  CLOUDY    83  69  62 SW6       29.80F
CHARLOTTSVILLE CLOUDY    80  72  76 S12       29.79F
ORANGE*        CLOUDY    81  70  69 S17G24    29.80F
LOUISA*        CLOUDY    81  72  74 SW6       29.79F
FARMVILLE*     CLOUDY    81  70  69 S13       29.80F
SOUTH HILL*    PTSUNNY   82  72  69 SW10      29.90F
ROANOKE RAPIDS NOT AVBL
RALEIGH        PTSUNNY   85  72  65 SW8       29.89F
$$

VAZ088>098-272100-
SOUTHEAST VIRGINIA

CITY           SKY/WX    TMP DP  RH WIND       PRES   REMARKS
NORFOLK        CLOUDY    80  70  71 SW10      29.81F
VIRGINIA BEACH CLOUDY    79  72  79 SW7       29.79F
NORFOLK NAVAL  PTSUNNY   81  72  74 VRB6      29.82F
WEST POINT*    CLOUDY    85  70  60 SW8       29.82F
NEWPORT NEWS   PTSUNNY   86  73  65 W7        29.81F
LANGLEY AFB    PTSUNNY   83  73  70 W12       29.80F
FORT EUSTIS    PTSUNNY   82  73  72 W3        29.79F
WILLIAMSBURG*  PTSUNNY   84  73  70 W7        29.82F
FRANKLIN*      PTSUNNY   79  72  78 SW7       29.83F
WAKEFIELD      PTSUNNY   82  70  66 SW8       29.83F
$$

VAZ020-022-025-037-045-272100-
WESTERN AND SOUTHWEST VIRGINIA

CITY           SKY/WX    TMP DP  RH WIND       PRES   REMARKS
STAUNTON*      CLOUDY    80  69  69 S8        29.83F
HOT SPRINGS VA CLOUDY    67  62  86 SW10      29.98F
LYNCHBURG      CLOUDY    82  70  66 SW6       29.86F
DANVILLE       CLOUDY    80  72  76 S5        29.87F
MARTINSVILLE   CLOUDY    86  69  56 CALM      29.90F
ROANOKE        CLOUDY    81  65  58 W12G17    29.88F
BLACKSBURG     CLOUDY    75  70  83 SW8         N/A
DUBLIN*        CLOUDY    76  68  76 SW12      29.93F
MARION*        RAIN     N/A N/A N/A SE3G10    29.97F
HILLSVILLE*    CLOUDY    76  64  66 SW10      29.99F
RICHLANDS*     CLOUDY    74  71  88 W10G16    29.99R
WISE*          CLOUDY    72  70  94 S9        29.99F
ABINGDON*      CLOUDY    76  72  86 CALM      29.97F
$$

MDZ021>025-VAZ099-100-272100-
SOUTHERN MARYLAND AND THE DELMARVA PENINSULA

CITY           SKY/WX    TMP DP  RH WIND       PRES   REMARKS
PATUXENT RIVER CLOUDY    82  71  69 SW9G20    29.78F
BAY BRIDGE APT   N/A     82  68  61 S12       29.76F
LEONARDTOWN    PTSUNNY   81  70  69 SW9       29.81F
DOVER          PTSUNNY   81  72  75 S17       29.75F
GEORGETOWN     CLOUDY    82  70  66 S14G24    29.78F
EASTON         PTSUNNY   82  72  69 SW10      29.82F
CAMBRIDGE      CLOUDY    81  70  69 SW6G16    29.79F
SALISBURY      NOT AVBL
OCEAN CITY     CLOUDY    83  71  67 W9        29.79F
WALLOPS ISLAND CLOUDY    84  73  69 W10       29.81F
ACCOMACK*        N/A     81  70  69 SW9       29.81F
$$

NCZ012>017-030>032-272100-
EASTERN NORTH CAROLINA

CITY           SKY/WX    TMP DP  RH WIND       PRES   REMARKS
ELIZABETH CITY CLOUDY    80  74  81 SW7       29.82F
AHOSKIE*       PTSUNNY   80  73  79 CALM      29.84F
EDENTON*       CLOUDY    81  72  74 W6        29.83F
CURRITUCK*     CLOUDY    81  71  72 SW3       29.83F
KILL DEVIL HLS LGT RAIN  82  76  81 SW6       29.83F
MANTEO         NOT AVBL
CAPE HATTERAS  CLOUDY    83  74  74 SW12      29.87F
GOLDSBORO      MOSUNNY   85  75  71 W13       29.87F
WASHINGTON     CLOUDY    78  70  74 W8        29.89R
GREENVILLE     MOSUNNY   79  72  78 W6        29.90F
NEW BERN       CLOUDY    86  71  60 NW3       29.90F
WILMINGTON     CLOUDY    91  72  53 W9        29.89F HX  98
$$

VAZ048-272100-
ELSEWHERE

CITY           SKY/WX    TMP DP  RH WIND       PRES   REMARKS
HARRISBURG PA  PTSUNNY   92  64  39 W6        29.70F
BALTIMORE      CLOUDY    87  70  56 SW9G17    29.74F
ANNAPOLIS      CLOUDY    85  70  60 VRB7      29.75F
ANDREWS AFB    PTSUNNY   82  71  67 SW10G18   29.77F
WILMINGTON DE  PTSUNNY   87  71  58 SW13      29.73F
PHILADELPHIA   PTSUNNY   91  69  48 S10G20    29.72F HX  96
WILDWOOD NJ*   PTSUNNY   82  70  65 SW14      29.78F
ATLANTIC CITY  SUNNY     84  69  60 SW13      29.75F
HENDERSON NC   MOSUNNY   81  69  66 SW7       29.87F
GREENSBORO     PTSUNNY   87  68  52 SW13G21   29.89F
ROCKY MOUNT    MOSUNNY   82  71  69 SW10      29.87F
FAYETTEVILLE   MOSUNNY   93  70  46 SW10      29.88F HX  99
CHARLOTTE      PTSUNNY   89  70  53 SW8       29.92F
$$

VAZ100-272100-
MARINE

STATION/POSITION TIME  TEMP    WIND        PRES    WAVE   SWELL
                       AIR SEA DIR/SP/G            HT/PER HT/PER
                 (UTC) (F)     (DEG/KT/KT) (MB)    (FT/S) (FT/S)
44066 TX TWR #4  2000   75 74  220/ 12/ 14 1008.0S   3/ 5   2/ 6
CAPE MAY NJ      2000   77 78  230/ 10/ 13 1007.9F
LEWES DE         2000   80 71  250/ 13/ 21 1008.0S
15NM E FENWICK I 2000   76 74              1008.6F   3/ 5
OCEAN-CITY-INLET 2000   80 74  250/ 16/ 19 1008.4F
WACHAPREAGUE VA  2000   82 80  260/  5/ 10 1009.4F
THOMAS POINT MD  2000   80 80  200/ 11/ 12 1008.3F
GOOSES REEF MD   2000   80     240/ 10/ 12 1009.0F
COVE POINT MD    2000   80     230/  9/ 12 1008.6F
SOLOMONS ISLAND  2000      80                N/A
BISHOPS HEAD MD  2000   79 79  220/ 14/ 16 1008.7F
PINEY POINT MD   2000          240/  9/ 12   N/A
POTOMAC MD       2000   80     250/ 14/ 17 1008.3F
CAMBRIDGE MD     2000   81 80  200/  9/ 14 1008.3F
LEWISETTA VA     2000   81 80  240/ 10/ 12 1008.5F
RAPPAHANNOCK LGT 2000          250/  8/  9 1009.9F
STINGRAY PT      2000   79     250/  6/  8 1010.5F
YORK RVR RNG VA  2000   81     260/ 15/ 17 1008.7F
YORKTOWN VA      2000   80 80  250/ 10/ 14 1009.1F
JAMESTOWN VA     2000   79     270/  8/ 10   N/A
DOMINION TERM VA 2000   79     260/  5/  7 1009.8F
KIPTOPEKE VA     2000      81  270/  9/ 11   N/A
CHES BAY BRIDGE  2000   79 80  250/ 11/ 12 1008.9S
CAPE HENRY VA    2000   79     250/  8/ 11 1008.5R
WILLOUBY STN VA  2000          240/ 14/ 16 1008.6F
S CRANEY ISL VA  2000          250/  7/  9 1009.6S
CAPE HENRY BUOY  2000      77                N/A     2/ 6
1ST LANDING BUOY 2000   80     250/ 10/ 12 1009.4F
CAPE CHARLES BUO 2000      76                N/A     2/ 7
OFFSHORE WE BUOY 2000      78                N/A     2/ 7
64NM E OF VA BCH 2000   79 79  220/  8/  8 1010.0F   3/ 4   2/ 4
DUCK PIER NC     2000   82 71  240/ 14/ 17 1009.5S
44056 DUCK FRF   2000                        N/A     1/13
OREGON INLET NC  2000   83 82  240/ 13/ 15 1010.7S
HATTERAS NC      2000   82 82  220/ 12/ 15 1011.9F
DIAMOND SHLS NC  2000          VRB 16/ 17  1011.4F   3/ 4   2/ 7
$$



USA.gov is the U.S. government's official web portal to all federal, state and local government web resources and services.